This is the latest recevied weather packets stored in our database for station/object KI4NG. If no packets are shown the sender has not sent any weather packets the latest 10 day(s).
| Time | Temp. | Humidity | Pressure | Rain* | Wind** | Luminosity | Snow |
|---|---|---|---|---|---|---|---|
| 1777663762 | 18.89° C | 46% | 1014.5 hPa | 0 mm | - | 698 W/m² | - |
| 1777663459 | 18.89° C | 45% | 1014.5 hPa | 0 mm | - | 665 W/m² | - |
| 1777663156 | 18.89° C | 46% | 1014.5 hPa | 0 mm | - | 667 W/m² | - |
| 1777662853 | 18.89° C | 46% | 1014.4 hPa | 0 mm | - | 718 W/m² | - |
| 1777662550 | 17.78° C | 50% | 1014.5 hPa | 0 mm | - | 701 W/m² | - |
| 1777662246 | 17.78° C | 51% | 1014.6 hPa | 0 mm | - | 694 W/m² | - |
| 1777661940 | 17.78° C | 47% | 1014.7 hPa | 0 mm | - | 173 W/m² | - |
| 1777661637 | 18.33° C | 46% | 1014.7 hPa | 0 mm | - | 665 W/m² | - |
| 1777661333 | 18.33° C | 46% | 1014.6 hPa | 0 mm | - | 646 W/m² | - |
| 1777661029 | 18.33° C | 44% | 1014.6 hPa | 0 mm | - | 691 W/m² | - |
| 1777660724 | 18.33° C | 44% | 1014.6 hPa | 0 mm | - | 593 W/m² | - |
| 1777660422 | 18.89° C | 45% | 1014.6 hPa | 0 mm | - | 661 W/m² | - |
| 1777660118 | 18.89° C | 45% | 1014.7 hPa | 0 mm | - | 660 W/m² | - |
| 1777659815 | 18.33° C | 45% | 1014.5 hPa | 0 mm | - | 698 W/m² | - |
| 1777659512 | 18.89° C | 49% | 1014.5 hPa | 0 mm | - | 668 W/m² | - |
| 1777659209 | 18.89° C | 46% | 1014.8 hPa | 0 mm | - | 698 W/m² | - |
| 1777658906 | 18.89° C | 45% | 1014.7 hPa | 0 mm | - | 646 W/m² | - |
| 1777658602 | 18.89° C | 43% | 1015 hPa | 0 mm | - | 663 W/m² | - |
| 1777658300 | 18.89° C | 49% | 1014.9 hPa | 0 mm | - | 629 W/m² | - |
| 1777657996 | 18.89° C | 47% | 1015 hPa | 0 mm | - | 610 W/m² | - |
| 1777657693 | 18.33° C | 46% | 1014.8 hPa | 0 mm | - | 688 W/m² | - |
| 1777657391 | 18.33° C | 48% | 1014.7 hPa | 0 mm | - | 717 W/m² | - |
| 1777657089 | 18.89° C | 52% | 1014.9 hPa | 0 mm | - | 706 W/m² | - |
| 1777656786 | 18.89° C | 48% | 1014.8 hPa | 0 mm | - | 751 W/m² | - |
| 1777656481 | 18.89° C | 48% | 1014.9 hPa | 0 mm | - | 730 W/m² | - |
* Rain latest hour (hover to see other rain measurements)
** Current wind speed in m/s (hover to see current wind gust speed)